Tracking 31027 objects as of 19-Jul-2025
HD Live streaming from Space Station
objects crossing your sky now

THORAD DELTA 1 DEB

Track THORAD DELTA 1 DEB now!
10-day predictions


NORAD ID: 8401
Int'l Code: 1974-089CD
Perigee: 1,349.4 km
Apogee: 1,452.0 km
Inclination: 101.4 °
Period: 113.6 minutes
Semi major axis: 7771 km
RCS: 0.0291 m2 (small)
Launch date: November 15, 1974
Source: United States (US)
Launch site: AIR FORCE WESTERN TEST RANGE (AFWTR)

Note: This is SATELLITE DEBRIS
Your satellite tracking list
FLOCK 4X 28
Track 1 satellite(s)




NASA's NSSDC Master Catalog

Two Line Element Set (TLE):
1 08401U 74089CD  25199.18288134 -.00000048  00000-0 -14727-4 0  9991
2 08401 101.4418 274.3067 0066036   8.6990  20.0073 12.67148347342987
Source of the keplerian elements: AFSPC